User: anonymous   Login
Location: El Bakhil
(32.7726°N, 5.5387°W)
Time: 02:44:40
(UTC+00:00)
Language:

MOZHAYETS 4 - Orbit

View from above orbital plane
View from above orbital plane
View from above satellite
View from above satellite

Ground track
Ground track

The orbit data is extracted from the following two-line orbital elements,

1 27939U 03042A   21216.46800726  .00000150  00000-0  35520-4 0  9999
2 27939  98.1473 353.2432 0014071 125.5018 234.7510 14.67007218954568
Epoch (UTC): 04 August 2021 11:13:55
Eccentricity: 0.0014071
inclination: 98.1473°
perigee height: 661 km
apogee height: 680 km
right ascension of ascending node: 353.2432°
argument of perigee: 125.5018°
revolutions per day: 14.67007218
mean anomaly at epoch: 234.7510°
orbit number at epoch: 95456

The dashed part of the orbit path shows where the satellite is in the earth's shadow,  

DLR